SCP
0 0 0 0 0 0 0 0 0 0 0 0 0 0 0 0 0 0 0 0 0 0 0 -0 -0 -0 -0 -0 -0 0 0 0 0 0 0 0 0 0 0 0 0 0 0
0 0 0 0 0 0 0 0 1 0 0 0 0 0 0 0 0 0 0 0 0 0 0 0 0 -0 -0 -0 0 0 0 0 0 0 0 0 0 0 0 0 -0 0 -0
0 0 0 0 0 0 0 0 1 1 1 0 0 0 0 0 0 0 0 0 0 0 0 0 0 0 0 0 0 0 0 0 0 0 0 0 0 0 0 -0 -0 0 0
0 0 0 0 0 1 0 1 1 1 1 0 0 0 0 0 0 0 0 0 0 0 0 0 0 0 0 0 0 -0 0 0 0 0 0 0 0 0 0 0 0 0 0
0 0 0 0 0 0 1 1 1 1 1 1 0 0 0 0 0 0 0 0 0 0 0 0 0 0 0 0 0 0 0 0 0 0 0 0 0 0 0 0 0 0 0
0 0 0 0 0 0 0 1 0 0 0 0 0 0 0 0 0 0 0 0 0 0 0 0 0 0 0 0 0 0 0 0 0 0 0 0 0 0 0 0 0 0 0
0 0 0 0 0 0 0 0 1 1 0 0 0 0 0 1 0 0 0 0 0 0 0 0 0 0 0 0 0 0 0 0 0 0 0 0 0 0 0 0 0 0 0
0 0 0 0 0 0 0 0 0 0 1 1 0 0 1 1 1 0 0 0 0 0 0 0 0 0 0 0 0 0 0 0 0 0 0 0 0 0 0 0 0 0 0
0 0 0 0 0 0 0 0 0 0 0 0 1 0 0 0 0 0 0 0 0 0 0 0 0 0 0 0 0 0 0 0 0 0 0 0 0 0 0 0 0 0 0
0 0 0 0 0 0 0 0 0 0 0 0 0 0 0 0 0 0 0 0 0 0 0 0 0 0 0 0 0 0 0 0 0 0 0 0 0 0 0 0 0 0 0
0 0 0 0 0 0 0 0 0 0 0 0 0 0 0 0 0 0 0 0 0 0 0 0 0 0 0 0 0 0 0 0 0 0 0 0 0 0 0 0 0 0 0
0 0 0 0 0 0 0 0 0 0 0 0 0 0 0 1 1 0 0 0 0 0 0 0 0 0 0 0 0 0 0 0 0 0 0 0 0 0 0 0 0 0 0
0 0 0 0 0 0 0 0 0 0 0 0 0 0 0 0 0 0 1 0 0 0 0 0 0 0 0 0 0 0 0 0 0 0 0 0 0 0 0 0 0 0 0
0 0 0 0 0 0 0 0 0 0 0 0 0 0 0 0 0 0 0 0 0 0 0 0 0 0 0 0 0 0 0 0 0 0 0 0 0 0 0 0 0 0 0
0 0 0 0 0 0 0 0 0 0 0 0 0 0 0 0 0 0 0 0 0 0 0 0 0 0 0 0 0 0 0 0 0 0 0 0 0 0 0 0 0 0 0
0 0 0 0 0 0 0 0 0 0 0 0 0 0 0 0 0 0 0 0 0 0 0 0 0 0 0 0 0 0 0 0 0 0 0 0 0 0 0 0 0 0 0
0 0 0 0 0 0 0 0 0 0 0 0 0 0 0 0 0 0 0 0 0 0 0 0 0 0 0 0 0 0 0 0 0 0 0 0 0 0 0 0 0 0 0
0 0 0 0 0 0 0 0 0 0 0 0 0 0 0 0 0 0 0 0 0 0 0 0 0 0 0 0 0 0 0 0 0 0 0 0 0 0 0 0 0 0 0
0 0 0 0 0 0 0 0 0 0 0 0 0 0 0 0 0 0 0 0 0 0 0 0 0 0 0 0 0 0 0 0 0 0 0 0 0 0 0 0 0 0 0
0 0 0 0 0 0 0 0 0 0 0 0 0 0 0 0 0 0 0 0 0 1 1 0 0 0 0 0 0 0 0 0 0 0 0 0 0 0 0 0 0 0 0
0 0 0 0 0 0 0 0 0 0 0 0 0 0 0 0 0 0 0 0 1 1 0 0 0 0 0 0 0 0 0 0 0 0 0 0 0 0 0 0 0 0 0
0 0 0 0 0 0 0 0 0 0 0 0 0 0 0 0 0 0 0 0 0 1 0 0 0 0 0 0 0 0 0 0 0 0 0 0 0 0 0 0 0 0 0
0 0 0 0 0 0 0 0 0 0 0 0 0 0 0 0 0 0 0 0 0 0 0 0 0 0 0 0 0 0 0 0 0 0 0 0 0 0 0 0 0 0 0
-0 0 0 0 0 0 0 0 0 0 0 0 0 0 0 0 0 0 0 0 0 0 0 0 0 0 0 0 0 0 0 0 0 0 0 0 0 0 0 0 0 0 0
0 0 0 0 0 0 0 0 0 0 0 0 0 0 0 0 0 0 0 0 0 0 0 0 0 0 0 0 0 0 0 0 0 0 0 0 0 0 0 0 0 0 0
-0 0 0 0 0 0 0 0 0 0 0 0 0 0 0 0 0 0 0 0 0 0 0 0 0 0 0 0 0 0 0 0 0 0 0 0 0 0 0 0 0 0 0
Wind_Speed_500mb
13 18 18 19 13 23 29 34 37 37 36 35 33 33 35 38 41 44 46 46 48 46 43 41 36 35 35 34 34 33 31 28 25 19 15 14 19 23 27 30 32 30 31
25 18 16 13 13 19 28 31 38 38 39 38 36 37 37 38 41 45 46 44 45 44 41 37 31 27 31 33 34 33 32 30 26 22 19 20 24 27 29 30 34 27 25
22 15 12 20 20 20 25 29 37 40 42 42 41 42 39 38 42 46 46 44 44 43 40 35 26 27 30 31 33 33 34 31 27 23 23 24 25 29 28 31 30 34 40
23 22 15 22 23 26 29 29 33 42 42 48 46 44 42 40 43 46 47 45 45 43 40 31 26 28 30 30 32 34 35 34 29 27 26 25 24 29 29 33 39 45 45
24 22 19 23 28 32 31 31 32 38 44 50 48 48 47 45 45 48 47 46 48 44 38 31 25 25 29 30 33 36 37 35 33 31 25 25 31 36 39 43 44 41 38
19 22 20 21 33 37 38 37 34 35 39 47 50 49 50 48 49 50 49 48 48 43 37 33 28 23 28 30 33 36 37 35 35 31 30 31 32 40 41 43 36 30 29
18 17 18 25 24 37 34 40 40 36 38 43 49 50 50 50 50 53 51 51 49 44 39 33 29 25 28 32 33 35 33 38 36 33 34 34 35 40 39 35 32 31 25
21 17 16 17 23 29 39 37 37 38 40 41 47 49 52 53 53 53 55 55 51 46 42 38 34 27 32 36 37 39 38 41 41 34 33 40 36 35 29 29 28 26 23
26 21 18 15 19 21 24 42 39 40 41 42 45 48 51 53 53 53 55 57 54 48 44 39 35 32 36 39 39 40 41 42 35 35 34 39 35 33 27 28 26 25 23
33 32 27 22 15 16 19 27 29 36 46 43 44 47 51 54 54 54 54 56 55 50 45 41 38 34 38 41 45 42 42 43 36 37 33 37 40 28 25 23 23 27 26
42 37 35 32 26 18 13 13 30 27 24 27 47 47 52 52 54 57 58 58 57 50 46 44 39 37 41 44 46 45 46 45 33 33 32 38 38 35 30 28 27 27 28
54 49 41 39 34 30 22 13 14 16 14 16 25 34 54 56 54 54 53 55 58 53 47 44 39 39 43 50 47 49 50 37 37 33 31 37 35 31 31 30 28 24 25
58 55 52 46 40 32 34 31 18 16 15 14 17 19 28 46 54 60 55 61 64 54 45 43 39 41 51 46 51 55 53 40 38 33 31 35 26 21 14 21 21 19 21
51 54 51 52 49 41 39 36 41 23 20 22 20 19 18 25 35 42 44 46 71 49 41 43 45 46 52 54 55 58 56 47 39 36 35 39 31 23 19 16 18 14 17
50 53 51 47 49 48 45 41 40 52 47 32 28 24 24 21 22 24 26 31 43 52 51 48 51 51 51 57 56 59 58 51 45 40 35 43 36 29 28 24 23 24 21
50 51 53 46 45 48 48 45 41 42 45 50 45 32 30 31 27 28 25 26 40 51 55 52 55 58 58 57 58 59 59 59 54 51 48 45 42 35 33 34 32 31 29
46 48 51 50 40 45 47 48 43 44 44 55 45 46 38 35 37 35 35 33 44 51 70 62 68 66 60 63 63 61 61 58 54 50 46 45 44 43 42 38 34 37 33
42 43 46 46 43 37 42 46 48 50 44 39 45 41 47 39 38 42 43 42 41 49 69 83 72 67 61 62 65 69 64 60 57 53 49 46 44 49 50 46 44 36 37
40 40 41 38 34 34 35 43 45 46 44 34 42 48 40 45 42 45 48 44 43 52 66 76 76 66 69 71 67 68 68 66 61 56 45 51 53 51 52 49 48 40 36
34 30 34 35 25 32 29 37 44 44 37 36 36 34 37 41 44 45 48 49 46 52 66 75 67 65 77 70 66 76 72 47 44 52 55 54 60 60 56 57 56 45 43
25 25 25 35 33 28 22 28 37 40 35 31 30 31 35 42 41 43 48 50 58 60 59 67 70 73 65 67 64 64 55 48 43 42 50 60 61 62 60 62 64 64 57
25 23 24 30 38 31 23 24 35 39 39 35 34 37 40 45 44 43 45 47 61 65 56 64 66 69 68 73 76 63 28 33 48 55 64 67 62 62 57 62 64 71 68
29 26 22 20 32 36 31 24 28 29 30 32 32 31 40 41 45 45 47 50 62 56 54 69 73 64 69 73 87 53 40 34 60 45 48 57 59 57 65 68 69 72 71
32 26 19 16 24 32 25 22 23 23 26 26 28 28 38 42 44 43 51 56 51 63 66 67 64 61 68 76 74 78 53 42 43 26 31 43 51 52 55 58 60 45 49
29 29 21 12 14 23 21 19 19 20 23 23 25 29 35 38 37 43 48 57 54 62 67 67 74 69 72 79 91 86 72 42 60 46 42 39 42 41 49 48 41 39 45
28 26 21 15 12 16 16 16 16 18 17 19 24 27 30 31 30 34 44 52 60 55 69 71 72 69 80 85 90 88 69 66 61 56 45 57 51 43 42 43 45 35 36
Wind_Direction_500mb
312 291 276 256 233 225 222 216 221 210 203 200 194 189 182 178 180 179 174 171 172 177 182 178 178 178 179 180 181 186 189 189 188 189 185 180 168 157 153 152 151 147 149
324 312 292 252 242 240 227 222 218 214 205 201 197 192 188 184 186 184 181 181 179 177 182 188 190 188 194 196 199 202 202 205 204 200 192 180 167 158 153 150 147 151 150
321 303 263 210 220 233 236 230 222 218 210 206 202 196 195 192 191 191 190 191 190 190 194 195 206 201 198 199 200 201 200 201 203 198 187 167 166 161 157 160 148 150 143
318 314 266 224 217 219 232 235 231 216 215 214 206 204 201 200 199 197 196 198 195 194 196 207 214 205 193 197 198 198 195 192 195 192 172 169 175 162 153 155 157 152 150
323 319 297 238 223 220 223 235 238 223 217 216 211 209 207 206 207 204 202 199 197 200 207 210 203 209 200 194 189 191 190 188 186 182 174 172 169 162 157 154 153 156 158
325 308 295 265 235 225 221 217 228 227 226 221 216 212 213 211 211 213 208 202 201 205 215 211 209 218 206 197 191 192 189 185 183 171 173 178 168 166 163 163 162 168 178
323 319 296 276 256 246 250 228 216 221 224 224 222 218 216 217 216 216 215 210 207 210 211 219 221 225 211 199 193 193 191 179 168 173 176 175 176 170 175 174 175 179 184
307 307 301 286 267 252 240 233 228 225 217 222 225 224 223 223 223 221 220 216 213 213 214 220 229 225 211 200 195 189 179 173 162 171 173 177 175 183 187 184 188 194 202
298 288 284 287 278 268 254 242 232 226 226 223 218 224 226 229 229 229 225 220 216 217 219 225 232 229 210 201 192 189 181 177 170 175 175 185 185 191 190 197 205 209 215
294 291 287 287 282 277 263 238 228 226 228 228 228 223 223 226 228 230 230 224 222 220 224 229 233 231 209 203 198 192 188 182 176 178 177 192 193 201 214 218 220 224 225
278 283 284 281 284 277 268 259 246 259 240 226 232 229 226 227 228 230 228 227 226 227 230 230 229 227 205 201 202 199 190 189 189 185 186 205 208 221 234 237 240 235 219
289 283 282 277 278 276 264 263 258 240 239 256 259 249 232 229 232 233 233 231 231 232 227 227 227 219 203 200 203 201 197 196 197 198 196 205 212 225 235 236 232 227 216
294 288 283 276 273 272 267 254 273 273 264 258 256 253 246 234 235 234 235 237 232 220 220 222 222 210 204 198 207 204 204 205 201 201 206 202 209 222 232 220 213 213 209
290 286 280 276 269 264 261 262 253 270 273 260 258 258 250 239 241 245 239 247 231 201 215 220 218 209 207 204 210 207 207 211 207 205 208 204 214 219 227 229 211 203 203
297 288 280 271 266 261 255 256 261 254 260 277 265 253 256 255 244 230 240 238 226 231 217 220 226 217 212 212 214 212 212 213 213 214 209 210 214 227 226 226 223 213 208
287 290 282 270 261 257 252 249 250 251 255 256 270 271 257 252 253 244 234 231 227 226 220 216 227 226 220 218 219 219 220 218 220 220 220 217 219 224 238 232 227 225 221
289 288 286 276 262 253 247 242 241 247 245 253 253 267 266 257 249 245 227 232 229 230 227 225 246 228 227 223 222 222 220 221 221 226 229 227 222 221 232 237 236 230 225
295 291 289 282 273 256 246 236 231 237 244 242 250 262 265 260 255 245 232 227 237 232 221 226 218 220 225 227 223 225 224 226 227 229 231 231 228 224 223 233 241 239 236
293 290 291 285 285 274 245 233 228 224 231 236 241 244 245 252 253 242 233 235 234 233 229 223 212 219 227 230 228 231 233 229 226 225 227 228 229 227 224 229 236 236 237
292 288 294 280 277 274 255 227 223 234 239 239 239 244 241 247 248 242 233 224 226 230 232 219 223 228 220 226 232 229 222 212 207 216 221 229 229 231 226 229 232 223 226
295 295 303 270 264 273 261 222 213 217 230 237 252 253 242 242 244 242 234 225 225 227 225 231 233 222 213 226 220 217 218 224 239 236 237 235 232 229 229 229 231 225 214
320 314 305 269 263 268 262 230 214 211 218 231 245 253 250 239 239 237 231 230 223 227 229 224 230 220 215 219 213 199 178 190 223 237 223 232 229 230 217 210 212 221 223
335 331 322 287 270 265 261 241 223 218 218 230 244 245 247 246 244 234 226 224 227 226 226 219 219 216 218 217 217 197 169 211 201 200 202 205 206 217 214 199 199 202 212
342 343 331 299 272 270 265 247 224 221 220 217 237 246 251 250 246 237 228 224 228 227 230 224 221 222 216 207 211 209 222 215 181 170 188 192 199 195 202 198 196 203 212
347 348 348 329 281 280 270 252 229 229 232 239 249 251 254 252 247 238 230 225 229 225 233 228 226 222 220 217 206 216 213 200 184 175 176 181 193 190 195 197 200 205 215
355 354 357 351 318 291 276 251 238 243 249 254 255 251 256 253 246 242 231 225 227 231 227 226 228 223 220 220 224 217 198 193 192 202 199 186 192 187 198 206 207 202 209
Wind_Speed_850mb
13 18 18 19 13 23 29 34 37 37 36 35 33 33 35 38 41 44 46 46 48 46 43 41 36 35 35 34 34 33 31 28 25 19 15 14 19 23 27 30 32 30 31
25 18 16 13 13 19 28 31 38 38 39 38 36 37 37 38 41 45 46 44 45 44 41 37 31 27 31 33 34 33 32 30 26 22 19 20 24 27 29 30 34 27 25
22 15 12 20 20 20 25 29 37 40 42 42 41 42 39 38 42 46 46 44 44 43 40 35 26 27 30 31 33 33 34 31 27 23 23 24 25 29 28 31 30 34 40
23 22 15 22 23 26 29 29 33 42 42 48 46 44 42 40 43 46 47 45 45 43 40 31 26 28 30 30 32 34 35 34 29 27 26 25 24 29 29 33 39 45 45
24 22 19 23 28 32 31 31 32 38 44 50 48 48 47 45 45 48 47 46 48 44 38 31 25 25 29 30 33 36 37 35 33 31 25 25 31 36 39 43 44 41 38
19 22 20 21 33 37 38 37 34 35 39 47 50 49 50 48 49 50 49 48 48 43 37 33 28 23 28 30 33 36 37 35 35 31 30 31 32 40 41 43 36 30 29
18 17 18 25 24 37 34 40 40 36 38 43 49 50 50 50 50 53 51 51 49 44 39 33 29 25 28 32 33 35 33 38 36 33 34 34 35 40 39 35 32 31 25
21 17 16 17 23 29 39 37 37 38 40 41 47 49 52 53 53 53 55 55 51 46 42 38 34 27 32 36 37 39 38 41 41 34 33 40 36 35 29 29 28 26 23
26 21 18 15 19 21 24 42 39 40 41 42 45 48 51 53 53 53 55 57 54 48 44 39 35 32 36 39 39 40 41 42 35 35 34 39 35 33 27 28 26 25 23
33 32 27 22 15 16 19 27 29 36 46 43 44 47 51 54 54 54 54 56 55 50 45 41 38 34 38 41 45 42 42 43 36 37 33 37 40 28 25 23 23 27 26
42 37 35 32 26 18 13 13 30 27 24 27 47 47 52 52 54 57 58 58 57 50 46 44 39 37 41 44 46 45 46 45 33 33 32 38 38 35 30 28 27 27 28
54 49 41 39 34 30 22 13 14 16 14 16 25 34 54 56 54 54 53 55 58 53 47 44 39 39 43 50 47 49 50 37 37 33 31 37 35 31 31 30 28 24 25
58 55 52 46 40 32 34 31 18 16 15 14 17 19 28 46 54 60 55 61 64 54 45 43 39 41 51 46 51 55 53 40 38 33 31 35 26 21 14 21 21 19 21
51 54 51 52 49 41 39 36 41 23 20 22 20 19 18 25 35 42 44 46 71 49 41 43 45 46 52 54 55 58 56 47 39 36 35 39 31 23 19 16 18 14 17
50 53 51 47 49 48 45 41 40 52 47 32 28 24 24 21 22 24 26 31 43 52 51 48 51 51 51 57 56 59 58 51 45 40 35 43 36 29 28 24 23 24 21
50 51 53 46 45 48 48 45 41 42 45 50 45 32 30 31 27 28 25 26 40 51 55 52 55 58 58 57 58 59 59 59 54 51 48 45 42 35 33 34 32 31 29
46 48 51 50 40 45 47 48 43 44 44 55 45 46 38 35 37 35 35 33 44 51 70 62 68 66 60 63 63 61 61 58 54 50 46 45 44 43 42 38 34 37 33
42 43 46 46 43 37 42 46 48 50 44 39 45 41 47 39 38 42 43 42 41 49 69 83 72 67 61 62 65 69 64 60 57 53 49 46 44 49 50 46 44 36 37
40 40 41 38 34 34 35 43 45 46 44 34 42 48 40 45 42 45 48 44 43 52 66 76 76 66 69 71 67 68 68 66 61 56 45 51 53 51 52 49 48 40 36
34 30 34 35 25 32 29 37 44 44 37 36 36 34 37 41 44 45 48 49 46 52 66 75 67 65 77 70 66 76 72 47 44 52 55 54 60 60 56 57 56 45 43
25 25 25 35 33 28 22 28 37 40 35 31 30 31 35 42 41 43 48 50 58 60 59 67 70 73 65 67 64 64 55 48 43 42 50 60 61 62 60 62 64 64 57
25 23 24 30 38 31 23 24 35 39 39 35 34 37 40 45 44 43 45 47 61 65 56 64 66 69 68 73 76 63 28 33 48 55 64 67 62 62 57 62 64 71 68
29 26 22 20 32 36 31 24 28 29 30 32 32 31 40 41 45 45 47 50 62 56 54 69 73 64 69 73 87 53 40 34 60 45 48 57 59 57 65 68 69 72 71
32 26 19 16 24 32 25 22 23 23 26 26 28 28 38 42 44 43 51 56 51 63 66 67 64 61 68 76 74 78 53 42 43 26 31 43 51 52 55 58 60 45 49
29 29 21 12 14 23 21 19 19 20 23 23 25 29 35 38 37 43 48 57 54 62 67 67 74 69 72 79 91 86 72 42 60 46 42 39 42 41 49 48 41 39 45
28 26 21 15 12 16 16 16 16 18 17 19 24 27 30 31 30 34 44 52 60 55 69 71 72 69 80 85 90 88 69 66 61 56 45 57 51 43 42 43 45 35 36
Wind_Direction_850mb
312 291 276 256 233 225 222 216 221 210 203 200 194 189 182 178 180 179 174 171 172 177 182 178 178 178 179 180 181 186 189 189 188 189 185 180 168 157 153 152 151 147 149
324 312 292 252 242 240 227 222 218 214 205 201 197 192 188 184 186 184 181 181 179 177 182 188 190 188 194 196 199 202 202 205 204 200 192 180 167 158 153 150 147 151 150
321 303 263 210 220 233 236 230 222 218 210 206 202 196 195 192 191 191 190 191 190 190 194 195 206 201 198 199 200 201 200 201 203 198 187 167 166 161 157 160 148 150 143
318 314 266 224 217 219 232 235 231 216 215 214 206 204 201 200 199 197 196 198 195 194 196 207 214 205 193 197 198 198 195 192 195 192 172 169 175 162 153 155 157 152 150
323 319 297 238 223 220 223 235 238 223 217 216 211 209 207 206 207 204 202 199 197 200 207 210 203 209 200 194 189 191 190 188 186 182 174 172 169 162 157 154 153 156 158
325 308 295 265 235 225 221 217 228 227 226 221 216 212 213 211 211 213 208 202 201 205 215 211 209 218 206 197 191 192 189 185 183 171 173 178 168 166 163 163 162 168 178
323 319 296 276 256 246 250 228 216 221 224 224 222 218 216 217 216 216 215 210 207 210 211 219 221 225 211 199 193 193 191 179 168 173 176 175 176 170 175 174 175 179 184
307 307 301 286 267 252 240 233 228 225 217 222 225 224 223 223 223 221 220 216 213 213 214 220 229 225 211 200 195 189 179 173 162 171 173 177 175 183 187 184 188 194 202
298 288 284 287 278 268 254 242 232 226 226 223 218 224 226 229 229 229 225 220 216 217 219 225 232 229 210 201 192 189 181 177 170 175 175 185 185 191 190 197 205 209 215
294 291 287 287 282 277 263 238 228 226 228 228 228 223 223 226 228 230 230 224 222 220 224 229 233 231 209 203 198 192 188 182 176 178 177 192 193 201 214 218 220 224 225
278 283 284 281 284 277 268 259 246 259 240 226 232 229 226 227 228 230 228 227 226 227 230 230 229 227 205 201 202 199 190 189 189 185 186 205 208 221 234 237 240 235 219
289 283 282 277 278 276 264 263 258 240 239 256 259 249 232 229 232 233 233 231 231 232 227 227 227 219 203 200 203 201 197 196 197 198 196 205 212 225 235 236 232 227 216
294 288 283 276 273 272 267 254 273 273 264 258 256 253 246 234 235 234 235 237 232 220 220 222 222 210 204 198 207 204 204 205 201 201 206 202 209 222 232 220 213 213 209
290 286 280 276 269 264 261 262 253 270 273 260 258 258 250 239 241 245 239 247 231 201 215 220 218 209 207 204 210 207 207 211 207 205 208 204 214 219 227 229 211 203 203
297 288 280 271 266 261 255 256 261 254 260 277 265 253 256 255 244 230 240 238 226 231 217 220 226 217 212 212 214 212 212 213 213 214 209 210 214 227 226 226 223 213 208
287 290 282 270 261 257 252 249 250 251 255 256 270 271 257 252 253 244 234 231 227 226 220 216 227 226 220 218 219 219 220 218 220 220 220 217 219 224 238 232 227 225 221
289 288 286 276 262 253 247 242 241 247 245 253 253 267 266 257 249 245 227 232 229 230 227 225 246 228 227 223 222 222 220 221 221 226 229 227 222 221 232 237 236 230 225
295 291 289 282 273 256 246 236 231 237 244 242 250 262 265 260 255 245 232 227 237 232 221 226 218 220 225 227 223 225 224 226 227 229 231 231 228 224 223 233 241 239 236
293 290 291 285 285 274 245 233 228 224 231 236 241 244 245 252 253 242 233 235 234 233 229 223 212 219 227 230 228 231 233 229 226 225 227 228 229 227 224 229 236 236 237
292 288 294 280 277 274 255 227 223 234 239 239 239 244 241 247 248 242 233 224 226 230 232 219 223 228 220 226 232 229 222 212 207 216 221 229 229 231 226 229 232 223 226
295 295 303 270 264 273 261 222 213 217 230 237 252 253 242 242 244 242 234 225 225 227 225 231 233 222 213 226 220 217 218 224 239 236 237 235 232 229 229 229 231 225 214
320 314 305 269 263 268 262 230 214 211 218 231 245 253 250 239 239 237 231 230 223 227 229 224 230 220 215 219 213 199 178 190 223 237 223 232 229 230 217 210 212 221 223
335 331 322 287 270 265 261 241 223 218 218 230 244 245 247 246 244 234 226 224 227 226 226 219 219 216 218 217 217 197 169 211 201 200 202 205 206 217 214 199 199 202 212
342 343 331 299 272 270 265 247 224 221 220 217 237 246 251 250 246 237 228 224 228 227 230 224 221 222 216 207 211 209 222 215 181 170 188 192 199 195 202 198 196 203 212
347 348 348 329 281 280 270 252 229 229 232 239 249 251 254 252 247 238 230 225 229 225 233 228 226 222 220 217 206 216 213 200 184 175 176 181 193 190 195 197 200 205 215
355 354 357 351 318 291 276 251 238 243 249 254 255 251 256 253 246 242 231 225 227 231 227 226 228 223 220 220 224 217 198 193 192 202 199 186 192 187 198 206 207 202 209